GW2194 Weather Reports


Display with metric or nautical units.
time (UTC)temp
F
wind
direction
speed
MPH
gust
MPH
rain 1hr
in
rain 24hr
in
rain mn
in
humidity
%
barometer
mb
20260509064707 49 147 0.0 1.0 0.00 0.00 0.00 84 1013.2
20260509064205 50 32 0.0 0.0 0.00 0.00 0.00 83 1013.3
20260509063702 50 181 0.0 0.0 0.00 0.00 0.00 83 1013.2
20260509063158 49 221 0.0 1.0 0.00 0.00 0.00 83 1013.7
20260509062655 49 119 0.0 1.0 0.00 0.00 0.00 83 1013.4
20260509062152 49 55 0.0 0.0 0.00 0.00 0.00 82 1013.3
20260509061649 49 41 1.0 1.0 0.00 0.00 0.00 81 1013.3
20260509061146 50 96 0.0 1.0 0.00 0.00 0.00 81 1013.4
20260509060644 50 44 0.0 0.0 0.00 0.00 0.00 81 1013.4
20260509060140 50 142 0.0 1.0 0.00 0.00 0.00 81 1013.5
20260509055636 50 49 0.0 1.0 0.00 0.00 0.00 82 1013.6
20260509055132 50 141 0.0 0.0 0.00 0.00 0.00 81 1013.7
20260509054629 50 201 0.0 1.0 0.00 0.00 0.00 83 1013.7
20260509054126 50 32 0.0 0.0 0.00 0.00 0.00 82 1013.7
20260509053625 50 135 0.0 0.0 0.00 0.00 0.00 82 1013.9
20260509053121 50 199 0.0 1.0 0.00 0.00 0.00 83 1013.9
20260509052619 50 147 0.0 0.0 0.00 0.00 0.00 83 1013.7
20260509052116 50 89 0.0 0.0 0.00 0.00 0.00 82 1014.0
20260509051614 50 98 0.0 1.0 0.00 0.00 0.00 80 1014.2
20260509051111 50 147 0.0 0.0 0.00 0.00 0.00 80 1014.0
20260509050609 50 103 0.0 0.0 0.00 0.00 0.00 81 1014.2
20260509050104 50 174 0.0 0.0 0.00 0.00 0.00 80 1014.1
20260509045603 50 89 0.0 1.0 0.00 0.00 0.00 80 1014.3
20260509045058 50 233 0.0 0.0 0.00 0.00 0.00 80 1014.5
20260509044556 50 185 0.0 1.0 0.00 0.00 0.00 80 1014.4
20260509044053 50 124 0.0 1.0 0.00 0.00 0.00 79 1014.2
20260509043550 50 79 2.0 3.0 0.00 0.00 0.00 80 1014.3
20260509043045 50 242 1.0 4.0 0.00 0.00 0.00 79 1014.2
20260509042542 50 63 3.0 4.0 0.00 0.00 0.00 79 1014.1
20260509042038 50 131 0.0 0.0 0.00 0.00 0.00 79 1014.2
20260509041535 50 89 0.0 0.0 0.00 0.00 0.00 79 1014.4
20260509041033 50 212 0.0 1.0 0.00 0.00 0.00 78 1014.5
20260509040531 50 218 0.0 0.0 0.00 0.00 0.00 79 1014.3
20260509040027 51 157 0.0 0.0 0.00 0.00 0.00 78 1014.4
20260509035524 51 135 0.0 0.0 0.00 0.00 0.00 77 1014.4
20260509035021 51 119 0.0 1.0 0.00 0.00 0.00 78 1014.4
20260509034519 51 48 1.0 2.0 0.00 0.00 0.00 79 1014.3
20260509034016 51 18 1.0 2.0 0.00 0.00 0.00 79 1014.5
20260509033513 51 42 1.0 2.0 0.00 0.00 0.00 78 1014.5
20260509033010 51 249 0.0 0.0 0.00 0.00 0.00 77 1014.4
20260509032507 51 195 1.0 1.0 0.00 0.00 0.00 78 1014.4
20260509032004 51 173 0.0 2.0 0.00 0.00 0.00 76 1014.3
20260509031501 51 89 0.0 1.0 0.00 0.00 0.00 76 1014.5
20260509030958 51 89 0.0 1.0 0.00 0.00 0.00 76 1014.5
20260509030456 51 18 1.0 2.0 0.00 0.00 0.00 77 1014.5
20260509025953 51 144 0.0 0.0 0.00 0.00 0.00 77 1014.3
20260509025449 51 185 0.0 1.0 0.00 0.00 0.00 77 1014.4
20260509024944 52 216 1.0 2.0 0.00 0.00 0.00 74 1014.5
20260509024441 52 186 0.0 2.0 0.00 0.00 0.00 74 1014.4
20260509023938 52 283 0.0 0.0 0.00 0.00 0.00 74 1014.4
20260509023435 53 39 1.0 2.0 0.00 0.00 0.00 72 1014.4
20260509022932 53 39 0.0 1.0 0.00 0.00 0.00 72 1014.3
20260509022429 53 58 0.0 2.0 0.00 0.00 0.00 72 1014.1
20260509021926 53 69 2.0 2.0 0.00 0.00 0.00 71 1014.3
20260509021423 53 50 1.0 1.0 0.00 0.00 0.00 72 1014.3
20260509020920 53 316 0.0 1.0 0.00 0.00 0.00 73 1014.3
20260509020419 53 80 0.0 2.0 0.00 0.00 0.00 72 1014.4
20260509015915 53 86 2.0 3.0 0.00 0.00 0.00 69 1014.5
20260509015414 53 89 0.0 2.0 0.00 0.00 0.00 70 1014.4
20260509014910 53 113 0.0 0.0 0.00 0.00 0.00 70 1014.4
20260509014407 53 32 0.0 0.0 0.00 0.00 0.00 71 1014.3
20260509013903 53 303 0.0 2.0 0.00 0.00 0.00 69 1014.5
20260509013400 53 174 0.0 0.0 0.00 0.00 0.00 70 1014.4
20260509012856 53 246 1.0 1.0 0.00 0.00 0.00 69 1014.4
20260509012353 54 204 1.0 1.0 0.00 0.00 0.00 69 1014.4
20260509011850 54 51 1.0 2.0 0.00 0.00 0.00 66 1014.3
20260509011347 53 44 0.0 0.0 0.00 0.00 0.00 67 1014.3
20260509010845 54 58 0.0 0.0 0.00 0.00 0.00 66 1013.9
20260509010342 54 350 1.0 3.0 0.00 0.00 0.00 65 1013.6
20260509005839 54 73 0.0 1.0 0.00 0.00 0.00 66 1013.6
20260509005337 54 50 0.0 1.0 0.00 0.00 0.00 63 1013.5
20260509004832 54 109 1.0 2.0 0.00 0.00 0.00 64 1013.5
20260509004328 55 296 1.0 3.0 0.00 0.00 0.00 63 1013.7
20260509003826 56 124 0.0 2.0 0.00 0.00 0.00 61 1014.0
20260509003324 56 55 0.0 1.0 0.00 0.00 0.00 56 1014.0
20260509002821 56 228 0.0 0.0 0.00 0.00 0.00 57 1013.9
20260509002318 57 230 0.0 1.0 0.00 0.00 0.00 56 1014.2
20260509001816 58 213 1.0 1.0 0.00 0.00 0.00 55 1013.9
20260509001311 59 221 1.0 2.0 0.00 0.00 0.00 52 1014.0
20260509000809 60 122 3.0 4.0 0.00 0.00 0.00 45 1013.9
20260509000306 60 32 0.0 1.0 0.00 0.00 0.00 43 1014.1
20260508235757 61 124 3.0 3.0 0.00 0.00 0.00 39 1014.1
20260508235254 62 89 0.0 1.0 0.00 0.00 0.00 38 1014.1
20260508234751 63 125 2.0 2.0 0.00 0.00 0.00 37 1013.7
20260508234247 62 150 0.0 4.0 0.00 0.00 0.00 38 1013.4
20260508233747 63 246 0.0 3.0 0.00 0.00 0.00 40 1013.6
20260508233245 63 334 1.0 4.0 0.00 0.00 0.00 34 1013.7
20260508232742 64 77 1.0 3.0 0.00 0.00 0.00 37 1013.6
20260508232238 64 23 3.0 5.0 0.00 0.00 0.00 37 1013.7
20260508231736 64 0 4.0 4.0 0.00 0.00 0.00 35 1013.9
20260508231232 65 226 0.0 3.0 0.00 0.00 0.00 34 1013.5
20260508230729 65 251 2.0 5.0 0.00 0.00 0.00 33 1013.4
20260508230225 66 10 6.0 6.0 0.00 0.00 0.00 35 1013.6
20260508225724 66 35 2.0 6.0 0.00 0.00 0.00 33 1013.7
20260508225220 66 180 1.0 9.0 0.00 0.00 0.00 33 1013.6
20260508224718 67 213 4.0 5.0 0.00 0.00 0.00 32 1013.5
20260508224215 68 307 2.0 6.0 0.00 0.00 0.00 31 1013.6
20260508223713 66 0 0.0 3.0 0.00 0.00 0.00 34 1013.7
20260508223210 66 359 4.0 8.0 0.00 0.00 0.00 34 1013.4
20260508222707 67 221 5.0 8.0 0.00 0.00 0.00 35 1013.3
20260508222204 66 184 1.0 5.0 0.00 0.00 0.00 38 1013.6
20260508221700 66 245 4.0 6.0 0.00 0.00 0.00 32 1013.5
20260508221156 66 217 6.0 10.0 0.00 0.00 0.00 32 1013.7
20260508220653 66 153 3.0 5.0 0.00 0.00 0.00 34 1013.7
20260508220149 66 237 4.0 6.0 0.00 0.00 0.00 32 1013.5
20260508215646 64 208 4.0 5.0 0.00 0.00 0.00 35 1013.9
20260508215143 66 228 3.0 11.0 0.00 0.00 0.00 32 1013.9
20260508214640 66 203 0.0 9.0 0.00 0.00 0.00 36 1013.7
20260508214137 65 184 4.0 13.0 0.00 0.00 0.00 34 1014.0
20260508213634 63 187 4.0 8.0 0.00 0.00 0.00 35 1014.0
20260508213130 64 180 4.0 5.0 0.00 0.00 0.00 35 1013.9
20260508212626 66 236 2.0 8.0 0.00 0.00 0.00 35 1013.9
20260508212123 66 343 3.0 5.0 0.00 0.00 0.00 34 1013.9
20260508211618 64 169 0.0 4.0 0.00 0.00 0.00 35 1014.0
20260508211115 64 287 2.0 4.0 0.00 0.00 0.00 35 1013.9
20260508210611 64 178 2.0 9.0 0.00 0.00 0.00 35 1014.2
20260508210109 64 95 4.0 7.0 0.00 0.00 0.00 39 1014.2
20260508205606 64 167 2.0 6.0 0.00 0.00 0.00 33 1014.4
20260508205102 66 144 2.0 7.0 0.00 0.00 0.00 35 1014.5
20260508204559 66 240 10.0 16.0 0.00 0.00 0.00 34 1014.4
20260508204054 66 261 8.0 13.0 0.00 0.00 0.00 33 1014.3
20260508203551 66 86 0.0 7.0 0.00 0.00 0.00 35 1014.3
20260508203047 65 152 2.0 10.0 0.00 0.00 0.00 33 1014.4
20260508202544 66 269 9.0 13.0 0.00 0.00 0.00 34 1014.4
20260508202041 64 235 4.0 6.0 0.00 0.00 0.00 37 1014.3
20260508201538 64 262 2.0 6.0 0.00 0.00 0.00 35 1014.5
20260508201034 64 212 6.0 9.0 0.00 0.00 0.00 36 1014.6
20260508200531 64 192 5.0 11.0 0.00 0.00 0.00 37 1014.6
20260508200027 64 240 4.0 9.0 0.00 0.00 0.00 36 1014.6
20260508195524 64 226 5.0 11.0 0.00 0.00 0.00 37 1014.9
20260508195020 64 217 4.0 6.0 0.00 0.00 0.00 35 1015.1
20260508194517 62 313 2.0 11.0 0.00 0.00 0.00 37 1015.5
20260508194015 62 261 4.0 10.0 0.00 0.00 0.00 40 1015.6
20260508193511 61 330 0.0 7.0 0.00 0.00 0.00 38 1015.5
20260508193008 61 289 3.0 5.0 0.00 0.00 0.00 41 1015.5
20260508192504 61 43 2.0 3.0 0.00 0.00 0.00 41 1015.7
20260508192001 62 11 3.0 4.0 0.00 0.00 0.00 38 1015.5
20260508191458 61 233 2.0 3.0 0.00 0.00 0.00 40 1015.6
20260508190955 62 162 2.0 4.0 0.00 0.00 0.00 39 1015.8
20260508190452 62 341 2.0 7.0 0.00 0.00 0.00 40 1015.8
20260508185948 62 225 6.0 7.0 0.00 0.00 0.00 38 1016.0
20260508185446 61 215 5.0 14.0 0.00 0.00 0.00 40 1016.1
20260508184943 61 237 3.0 6.0 0.00 0.00 0.00 41 1016.2
20260508184441 61 253 4.0 5.0 0.00 0.00 0.00 40 1016.1
20260508183937 61 180 3.0 7.0 0.00 0.00 0.00 40 1016.1
20260508183433 63 31 5.0 12.0 0.00 0.00 0.00 39 1016.3
20260508182928 62 338 7.0 9.0 0.00 0.00 0.00 38 1016.2
20260508182426 61 44 3.0 5.0 0.00 0.00 0.00 40 1016.4
20260508181921 61 135 0.0 6.0 0.00 0.00 0.00 38 1016.4
20260508181418 61 39 4.0 5.0 0.00 0.00 0.00 39 1016.5
20260508180915 61 227 7.0 9.0 0.00 0.00 0.00 40 1016.3
20260508180412 61 7 4.0 6.0 0.00 0.00 0.00 39 1016.4
20260508175908 62 227 6.0 7.0 0.00 0.00 0.00 40 1016.6
20260508175405 60 34 2.0 5.0 0.00 0.00 0.00 37 1016.6
20260508174903 61 319 5.0 14.0 0.00 0.00 0.00 39 1016.7
20260508174400 61 246 5.0 11.0 0.00 0.00 0.00 41 1016.7
20260508173856 61 208 7.0 10.0 0.00 0.00 0.00 38 1016.4
20260508173354 62 233 8.0 14.0 0.00 0.00 0.00 38 1016.3
20260508172849 62 10 0.0 13.0 0.00 0.00 0.00 37 1016.6
20260508172347 62 247 7.0 8.0 0.00 0.00 0.00 42 1016.5
20260508171843 61 192 7.0 11.0 0.00 0.00 0.00 38 1016.7
20260508171339 61 237 8.0 10.0 0.00 0.00 0.00 40 1016.9
20260508170836 62 251 5.0 15.0 0.00 0.00 0.00 36 1016.9
20260508170334 61 344 7.0 10.0 0.00 0.00 0.00 40 1017.1
20260508165830 60 8 3.0 6.0 0.00 0.00 0.00 38 1017.1
20260508165328 60 248 5.0 14.0 0.00 0.00 0.00 38 1017.4
20260508164824 62 285 3.0 8.0 0.00 0.00 0.00 35 1017.4
20260508164321 60 241 7.0 9.0 0.00 0.00 0.00 41 1017.4
20260508163819 60 43 6.0 9.0 0.00 0.00 0.00 36 1017.2
20260508163316 60 240 3.0 11.0 0.00 0.00 0.00 39 1017.4
20260508162812 60 264 5.0 10.0 0.00 0.00 0.00 38 1017.6
20260508162309 59 328 2.0 6.0 0.00 0.00 0.00 40 1017.5
20260508161806 60 315 5.0 10.0 0.00 0.00 0.00 37 1017.5
20260508161303 61 343 6.0 9.0 0.00 0.00 0.00 35 1017.4
20260508160801 61 99 5.0 8.0 0.00 0.00 0.00 44 1017.7
20260508160259 61 258 5.0 7.0 0.00 0.00 0.00 34 1017.5
20260508155755 59 168 3.0 9.0 0.00 0.00 0.00 40 1017.2
20260508155252 59 10 6.0 17.0 0.00 0.00 0.00 38 1017.3
20260508154749 60 285 9.0 12.0 0.00 0.00 0.00 39 1017.5
20260508154247 59 333 4.0 15.0 0.00 0.00 0.00 37 1017.7
20260508153743 59 347 6.0 10.0 0.00 0.00 0.00 40 1017.7
20260508153240 59 223 9.0 11.0 0.00 0.00 0.00 40 1017.5
20260508152737 59 25 4.0 6.0 0.00 0.00 0.00 36 1017.6
20260508152233 59 317 6.0 11.0 0.00 0.00 0.00 38 1017.8
20260508151729 59 207 5.0 11.0 0.00 0.00 0.00 41 1017.5
20260508151226 59 352 9.0 9.0 0.00 0.00 0.00 41 1017.8
20260508150722 58 196 6.0 13.0 0.00 0.00 0.00 38 1017.8
20260508150219 57 235 1.0 10.0 0.00 0.00 0.00 42 1017.5
20260508145715 58 49 5.0 9.0 0.00 0.00 0.00 41 1017.8
20260508145211 58 220 3.0 9.0 0.00 0.00 0.00 38 1018.2
20260508144709 57 58 2.0 8.0 0.00 0.00 0.00 42 1017.6
20260508144207 58 355 6.0 9.0 0.00 0.00 0.00 40 1017.9
20260508143704 58 72 3.0 11.0 0.00 0.00 0.00 40 1017.7
20260508143201 57 341 3.0 10.0 0.00 0.00 0.00 38 1017.9
20260508142657 56 212 3.0 6.0 0.00 0.00 0.00 39 1018.2
20260508142154 57 358 6.0 14.0 0.00 0.00 0.00 42 1018.0
20260508141650 56 245 3.0 7.0 0.00 0.00 0.00 41 1017.7
20260508141148 57 347 5.0 15.0 0.00 0.00 0.00 43 1018.0
20260508140645 56 3 5.0 5.0 0.00 0.00 0.00 41 1018.0
20260508140142 55 103 1.0 6.0 0.00 0.00 0.00 46 1018.0
20260508135638 55 33 4.0 5.0 0.00 0.00 0.00 45 1018.0
20260508135134 54 309 1.0 4.0 0.00 0.00 0.00 47 1018.4
20260508134630 54 225 4.0 9.0 0.00 0.00 0.00 44 1018.3
20260508134128 53 178 3.0 5.0 0.00 0.00 0.00 43 1018.2
20260508133624 53 80 0.0 3.0 0.00 0.00 0.00 53 1018.4
20260508133121 53 75 4.0 4.0 0.00 0.00 0.00 55 1018.3
20260508132619 53 50 3.0 3.0 0.00 0.00 0.00 52 1018.0
20260508132116 51 111 1.0 2.0 0.00 0.00 0.00 57 1018.3
20260508131611 48 119 1.0 3.0 0.00 0.00 0.00 68 1018.0
20260508131109 46 77 2.0 3.0 0.00 0.00 0.00 80 1017.9
20260508130605 46 72 3.0 4.0 0.00 0.00 0.00 78 1018.5
20260508125557 44 80 3.0 3.0 0.00 0.00 0.00 79 1018.4
20260508125055 42 311 0.0 3.0 0.00 0.00 0.00 84 1018.3
20260508124553 41 66 3.0 4.0 0.00 0.00 0.00 85 1018.5
20260508124050 41 54 3.0 3.0 0.00 0.00 0.00 90 1018.4
20260508123548 41 78 3.0 4.0 0.00 0.00 0.00 96 1018.4
20260508123045 38 116 0.0 0.0 0.00 0.00 0.00 97 1018.5
20260508122541 39 107 1.0 2.0 0.00 0.00 0.00 97 1018.7
20260508122038 38 34 0.0 2.0 0.00 0.00 0.00 97 1018.5
20260508121537 37 69 0.0 2.0 0.00 0.00 0.00 97 1018.3
20260508121034 37 83 2.0 2.0 0.00 0.00 0.00 97 1018.5
20260508120531 37 45 2.0 2.0 0.00 0.00 0.00 97 1018.7
20260508120030 36 89 0.0 2.0 0.00 0.00 0.00 97 1018.5
20260508115527 35 55 0.0 2.0 0.00 0.00 0.00 97 1018.5
20260508115023 36 45 2.0 2.0 0.00 0.00 0.00 97 1018.3
20260508114520 36 48 2.0 3.0 0.00 0.00 0.00 97 1018.2
20260508114017 36 67 2.0 2.0 0.00 0.00 0.00 97 1018.4
20260508113514 36 66 0.0 0.0 0.00 0.00 0.00 97 1018.3
20260508113012 35 33 1.0 1.0 0.00 0.00 0.00 97 1018.4
20260508112508 35 66 0.0 2.0 0.00 0.00 0.00 97 1018.3
20260508112005 35 49 1.0 2.0 0.00 0.00 0.00 97 1018.5
20260508111502 34 70 1.0 1.0 0.00 0.00 0.00 97 1018.3
20260508110959 34 58 0.0 0.0 0.00 0.00 0.00 97 1018.3
20260508110457 33 69 0.0 0.0 0.00 0.00 0.00 97 1018.3
20260508105956 33 51 1.0 1.0 0.00 0.00 0.00 97 1018.2
20260508105453 33 62 2.0 2.0 0.00 0.00 0.00 97 1018.3
20260508104950 33 166 0.0 0.0 0.00 0.00 0.00 97 1017.9
20260508104448 33 166 0.0 1.0 0.00 0.00 0.00 97 1017.8
20260508103944 33 205 0.0 0.0 0.00 0.00 0.00 97 1017.8
20260508103441 33 147 0.0 0.0 0.00 0.00 0.00 97 1017.8
20260508102938 33 119 0.0 1.0 0.00 0.00 0.00 97 1017.9
20260508102437 33 326 0.0 0.0 0.00 0.00 0.00 97 1018.0
20260508101933 33 326 0.0 0.0 0.00 0.00 0.00 97 1018.0
20260508101431 32 55 0.0 0.0 0.00 0.00 0.00 96 1017.9
20260508100928 32 80 1.0 1.0 0.00 0.00 0.00 96 1017.5
20260508100427 33 321 0.0 2.0 0.00 0.00 0.00 96 1017.6
20260508095922 33 269 0.0 0.0 0.00 0.00 0.00 96 1017.7
20260508095420 33 209 0.0 2.0 0.00 0.00 0.00 96 1017.6
20260508094917 33 113 0.0 2.0 0.00 0.00 0.00 96 1017.5
20260508094413 33 10 2.0 3.0 0.00 0.00 0.00 96 1017.8
20260508093910 33 264 1.0 1.0 0.00 0.00 0.00 96 1017.4
20260508093408 32 38 0.0 1.0 0.00 0.00 0.00 96 1017.5
20260508092905 33 89 0.0 1.0 0.00 0.00 0.00 96 1017.5
20260508092403 33 13 0.0 1.0 0.00 0.00 0.00 96 1017.6
20260508091901 33 269 0.0 1.0 0.00 0.00 0.00 96 1017.6
20260508091358 33 188 0.0 1.0 0.00 0.00 0.00 96 1017.5
20260508090855 33 157 0.0 0.0 0.00 0.00 0.00 96 1017.5
20260508090354 33 293 0.0 0.0 0.00 0.00 0.00 96 1017.7
20260508085849 33 80 0.0 0.0 0.00 0.00 0.00 96 1017.4
20260508085346 34 293 0.0 1.0 0.00 0.00 0.00 96 1017.6
20260508084842 34 328 0.0 0.0 0.00 0.00 0.00 96 1017.5
20260508084339 34 168 0.0 1.0 0.00 0.00 0.00 96 1017.4
20260508083837 34 194 0.0 2.0 0.00 0.00 0.00 96 1017.3
20260508083334 34 166 0.0 0.0 0.00 0.00 0.00 95 1017.4
20260508082834 34 73 0.0 2.0 0.00 0.00 0.00 95 1017.3
20260508082332 34 212 0.0 0.0 0.00 0.00 0.00 95 1017.3
20260508081829 34 185 0.0 0.0 0.00 0.00 0.00 95 1017.2
20260508081326 34 185 0.0 1.0 0.00 0.00 0.00 95 1017.1
20260508080823 34 22 0.0 1.0 0.00 0.00 0.00 95 1017.1
20260508080321 34 81 1.0 1.0 0.00 0.00 0.00 95 1017.0
20260508075817 34 181 1.0 2.0 0.00 0.00 0.00 95 1016.9
20260508075314 34 218 0.0 0.0 0.00 0.00 0.00 95 1016.8
20260508074812 34 212 0.0 0.0 0.00 0.00 0.00 95 1017.1
20260508074309 35 44 0.0 0.0 0.00 0.00 0.00 95 1017.0
20260508073806 35 29 0.0 1.0 0.00 0.00 0.00 95 1017.0
20260508073304 35 135 0.0 0.0 0.00 0.00 0.00 95 1017.2
20260508072759 35 176 1.0 2.0 0.00 0.00 0.00 95 1017.2
20260508072256 35 166 0.0 1.0 0.00 0.00 0.00 94 1017.1
20260508071754 35 145 0.0 1.0 0.00 0.00 0.00 94 1017.2
20260508071252 35 55 0.0 0.0 0.00 0.00 0.00 94 1017.0
20260508070749 35 235 0.0 0.0 0.00 0.00 0.00 94 1017.3
20260508070248 35 55 0.0 1.0 0.00 0.00 0.00 94 1017.0
20260508065744 36 157 0.0 1.0 0.00 0.00 0.00 94 1017.2
20260508065242 36 218 0.0 0.0 0.00 0.00 0.00 94 1017.0